Вернуться в каталог

STARLINK-2571

АктивенСвязьVLEO
NORAD 48401·PAYLOAD·🇺🇸 United States

Запущен May 4, 2021 с Cape Canaveral Space Force Station

Loading…

Ближайшие Пролёты (ближайшие 24 часа)

TLE

СвежийSource: CelesTrak SupGP

Эпоха: Sep 15, 2026, 01:30 UTC

1 48401C 21038BA  26258.06298611 -.00000444  00000+0 -14287-4 0  2584
2 48401  53.1596 171.5924 0001407  88.8876 199.4933 15.31697847    14

Отслеживайте STARLINK-2571 в реальном времени с AllMySat

Download on the App Store